Terminal Aerodrome Forecast
Issued by NWS St Louis, MO

Home | Current Version | Previous Version | Text Only | Print | Product List | Glossary On
Versions: 1 2 3 4 5 6 7 8 9 10 11 12 13 14 15 16 17 18 19 20 21 22 23 24 25 26 27 28 29 30 31 32 33 34 35 36 37
000
FTUS43 KLSX 282058 AAB
TAFSTL
TAF AMD
KSTL 282058Z 2821/2924 VRB04KT P6SM OVC022
     FM290200 05005KT P6SM OVC035
     FM290800 07007KT P6SM BKN020
     FM291200 08009KT P6SM -SHRA OVC010
     FM291800 09009KT P6SM OVC008=

USA.gov is the U.S. government's official web portal to all federal, state and local government web resources and services.